Date String (YYYY-MM-DD hh:mm:ss) UTC,Instrument flags,Ambient pressure (hPa),Sample flow (lpm),Bypass flow (lpm),Sample temperature (°C),Ambient temperature (°C),ASC tube jacket temperature (°C),LED temperature (°C),Box temperature (°C),Sample RH (%),Span deviation,Mass concentration (μg/m³),Mass concentration (μg/m³),Mass concentration (μg/m³)
DateTimeUTC,F1_M11,P_M11,Q1_M11,Q2_M11,T1_M11,T2_M11,T3_M11,T4_M11,T5_M11,U1_M11,ZSPAN_M11,X2_M11,X0_M11,X1_M11
2023-02-21 01:00:00,,0817.4,4.99,0.00,22.0,20.3,00.0,31.0,23.7,12.6,0000.0,0000.56,0001.02,0000.35
2023-02-21 01:01:00,,0817.6,5.02,0.00,22.0,20.3,00.0,31.0,23.7,12.1,0000.0,0000.57,0001.03,0000.35
2023-02-21 01:02:00,,0817.4,5.02,0.00,22.0,20.4,00.0,31.0,23.8,11.9,0000.0,0000.57,0001.02,0000.36
2023-02-21 01:03:00,,0817.4,5.00,0.00,22.0,20.4,00.0,31.0,23.8,11.9,0000.0,0000.57,0001.02,0000.37
2023-02-21 01:04:00,,0817.4,4.99,0.00,22.0,20.4,00.0,30.9,23.8,12.0,0000.0,0000.57,0001.02,0000.37
2023-02-21 01:05:00,,0817.4,5.01,0.00,22.0,20.4,00.0,30.9,23.8,12.1,0000.0,0000.57,0001.02,0000.37
2023-02-21 01:06:00,,0817.5,5.02,0.00,22.0,20.4,00.0,30.9,23.8,11.9,0000.0,0000.56,0000.99,0000.37
2023-02-21 01:07:00,,0817.4,5.00,0.00,22.0,20.4,00.0,30.9,23.8,11.9,0000.0,0000.57,0001.01,0000.36
2023-02-21 01:08:00,,0817.5,5.00,0.00,22.0,20.4,00.0,30.9,23.8,11.9,0000.0,0000.59,0001.04,0000.36
2023-02-21 01:09:00,,0817.5,4.99,0.00,22.0,20.4,00.0,30.9,23.8,11.9,0000.0,0000.58,0001.01,0000.36
2023-02-21 01:10:00,,0817.6,5.00,0.00,22.0,20.4,00.0,30.9,23.8,12.0,0000.0,0000.55,0000.91,0000.36
2023-02-21 01:11:00,,0817.6,5.02,0.00,22.0,20.4,00.0,30.9,23.8,12.2,0000.0,0000.52,0000.83,0000.36
2023-02-21 01:12:00,,0817.6,5.03,0.00,22.0,20.5,00.0,30.9,23.8,12.2,0000.0,0000.52,0000.82,0000.35
2023-02-21 01:13:00,,0817.5,5.00,0.00,22.0,20.5,00.0,30.9,23.8,12.3,0000.0,0000.53,0000.87,0000.34
2023-02-21 01:14:00,,0817.5,5.00,0.00,22.0,20.5,00.0,30.9,23.8,12.2,0000.0,0000.55,0000.96,0000.34
2023-02-21 01:15:00,,0817.5,5.00,0.00,22.0,20.6,00.0,30.9,23.8,12.2,0000.0,0000.58,0001.02,0000.35
2023-02-21 01:16:00,,0817.5,4.99,0.00,22.0,20.6,00.0,30.9,23.8,12.3,0000.0,0000.61,0001.11,0000.36
2023-02-21 01:17:00,,0817.5,5.00,0.00,22.0,20.5,00.0,30.9,23.8,12.1,0000.0,0000.65,0001.19,0000.36
2023-02-21 01:18:00,,0817.5,4.99,0.00,22.0,20.5,00.0,30.9,23.8,12.0,0000.0,0000.64,0001.15,0000.37
2023-02-21 01:19:00,,0817.5,5.00,0.00,22.0,20.5,00.0,30.9,23.8,12.2,0000.0,0000.62,0001.22,0000.37
2023-02-21 01:20:00,,0817.5,5.01,0.00,22.0,20.5,00.0,30.9,23.8,12.2,0000.0,0000.61,0001.20,0000.37
2023-02-21 01:21:00,,0817.5,5.02,0.00,22.0,20.4,00.0,30.9,23.8,12.1,0000.0,0000.62,0001.19,0000.38
2023-02-21 01:22:00,,0817.6,5.01,0.00,22.0,20.4,00.0,30.9,23.8,12.0,0000.0,0000.64,0001.38,0000.38
2023-02-21 01:23:00,,0817.5,4.99,0.00,22.0,20.4,00.0,30.9,23.8,12.2,0000.0,0000.68,0001.94,0000.38
2023-02-21 01:24:00,,0817.4,5.00,0.00,22.0,20.5,00.0,30.9,23.7,12.3,0000.0,0000.69,0001.94,0000.38
2023-02-21 01:25:00,,0817.5,5.01,0.00,22.0,20.5,00.0,30.9,23.7,12.5,0000.0,0000.66,0001.85,0000.38
2023-02-21 01:26:00,,0817.5,4.98,0.00,22.0,20.4,00.0,30.9,23.7,12.6,0000.0,0000.65,0001.80,0000.38
2023-02-21 01:27:00,,0817.4,5.00,0.00,21.9,20.4,00.0,30.9,23.7,12.3,0000.0,0000.63,0001.77,0000.37
2023-02-21 01:28:00,,0817.3,5.01,0.00,21.9,20.4,00.0,30.9,23.8,12.0,0000.0,0000.61,0001.85,0000.37
2023-02-21 01:29:00,,0817.4,5.01,0.00,21.9,20.4,00.0,30.9,23.8,11.8,0000.0,0000.61,0001.85,0000.36
2023-02-21 01:30:00,,0817.4,5.01,0.00,21.9,20.4,00.0,30.9,23.8,12.0,0000.0,0000.61,0001.78,0000.36
2023-02-21 01:31:00,,0817.3,4.99,0.00,21.9,20.4,00.0,30.9,23.8,11.9,0000.0,0000.61,0001.77,0000.35
2023-02-21 01:32:00,,0817.4,5.00,0.00,22.0,20.4,00.0,30.9,23.8,12.0,0000.0,0000.59,0001.73,0000.35
2023-02-21 01:33:00,,0817.5,5.02,0.00,22.0,20.5,00.0,30.9,23.8,12.0,0000.0,0000.57,0001.56,0000.34
2023-02-21 01:34:00,,0817.5,4.99,0.00,22.0,20.5,00.0,30.9,23.8,12.2,0000.0,0000.55,0001.08,0000.34
2023-02-21 01:35:00,,0817.4,5.00,0.00,22.0,20.5,00.0,30.9,23.8,12.2,0000.0,0000.54,0001.08,0000.34
2023-02-21 01:36:00,,0817.4,5.00,0.00,22.0,20.5,00.0,30.9,23.8,12.1,0000.0,0000.57,0001.17,0000.34
2023-02-21 01:37:00,,0817.4,4.98,0.00,21.9,20.5,00.0,30.9,23.7,11.7,0000.0,0000.57,0001.18,0000.34
2023-02-21 01:38:00,,0817.4,5.00,0.00,21.9,20.5,00.0,30.9,23.7,12.0,0000.0,0000.56,0001.16,0000.34
2023-02-21 01:39:00,,0817.4,5.01,0.00,21.9,20.5,00.0,30.9,23.8,12.2,0000.0,0000.55,0001.03,0000.35
2023-02-21 01:40:00,,0817.2,5.00,0.00,21.9,20.5,00.0,30.9,23.8,12.3,0000.0,0000.57,0001.08,0000.35
2023-02-21 01:41:00,,0817.1,5.00,0.00,22.0,20.5,00.0,30.9,23.8,12.3,0000.0,0000.57,0001.09,0000.35
2023-02-21 01:42:00,,0817.1,5.01,0.00,22.0,20.5,00.0,30.9,23.8,12.1,0000.0,0000.58,0001.09,0000.35
2023-02-21 01:43:00,,0817.2,5.00,0.00,22.0,20.5,00.0,30.9,23.8,12.2,0000.0,0000.59,0001.14,0000.35
2023-02-21 01:44:00,,0817.2,5.00,0.00,22.0,20.6,00.0,30.9,23.8,12.2,0000.0,0000.61,0001.20,0000.36
2023-02-21 01:45:00,,0817.2,4.99,0.00,22.0,20.6,00.0,30.9,23.8,12.2,0000.0,0000.60,0001.17,0000.35
2023-02-21 01:46:00,,0817.2,5.02,0.00,22.0,20.6,00.0,30.9,23.9,12.4,0000.0,0000.59,0001.11,0000.36
2023-02-21 01:47:00,,0817.3,4.99,0.00,22.0,20.6,00.0,30.9,23.9,12.5,0000.0,0000.55,0001.02,0000.35
2023-02-21 01:48:00,,0817.4,5.00,0.00,22.0,20.6,00.0,30.9,23.9,12.2,0000.0,0000.56,0001.11,0000.36
2023-02-21 01:49:00,,0817.4,5.00,0.00,22.0,20.5,00.0,30.9,23.8,12.0,0000.0,0000.59,0001.27,0000.36
2023-02-21 01:50:00,,0817.5,5.01,0.00,22.0,20.5,00.0,30.9,23.8,11.9,0000.0,0000.59,0001.24,0000.36
2023-02-21 01:51:00,,0817.5,5.00,0.00,22.0,20.5,00.0,30.9,23.8,11.8,0000.0,0000.56,0001.17,0000.35
2023-02-21 01:52:00,,0817.4,5.00,0.00,22.0,20.5,00.0,30.9,23.8,11.8,0000.0,0000.57,0001.22,0000.35
2023-02-21 01:53:00,,0817.4,5.00,0.00,22.0,20.5,00.0,30.9,23.8,11.8,0000.0,0000.59,0001.35,0000.35
2023-02-21 01:54:00,,0817.3,5.00,0.00,22.0,20.5,00.0,30.9,23.8,11.7,0000.0,0000.58,0001.33,0000.35
2023-02-21 01:55:00,,0817.4,5.00,0.00,22.0,20.5,00.0,30.9,23.8,11.7,0000.0,0000.56,0001.24,0000.34
2023-02-21 01:56:00,,0817.4,5.00,0.00,22.0,20.6,00.0,30.9,23.8,11.8,0000.0,0000.56,0001.31,0000.34
2023-02-21 01:57:00,,0817.4,4.99,0.00,22.0,20.5,00.0,30.9,23.8,11.8,0000.0,0000.57,0001.36,0000.34
2023-02-21 01:58:00,,0817.3,4.99,0.00,22.0,20.5,00.0,30.9,23.8,11.9,0000.0,0000.58,0001.41,0000.34
2023-02-21 01:59:00,,0817.4,5.01,0.00,22.0,20.5,00.0,30.9,23.8,12.1,0000.0,0000.60,0001.37,0000.33
